DW5488 Weather Reports


Display with metric or nautical units.
time (UTC)temp
F
wind
direction
speed
MPH
gust
MPH
rain 1hr
in
rain 24hr
in
rain mn
in
humidity
%
barometer
mb
20240717234551 84 121 0.0 2.0 0.00 0.13 0.13 77 1009.6
20240717233048 84 185 0.0 5.0 0.00 0.13 0.13 78 1009.7
20240717231550 84 160 0.0 5.0 0.00 0.13 0.13 79 1009.4
20240717230049 84 159 1.0 8.0 0.00 0.13 0.13 80 1009.2
20240717224547 84 197 2.0 6.0 0.00 0.13 0.13 80 1009.3
20240717223051 83 56 0.0 5.0 0.00 0.13 0.13 82 1009.5
20240717221556 83 45 0.0 6.0 0.00 0.13 0.13 82 1009.5
20240717220045 82 69 1.0 5.0 0.00 0.13 0.13 82 1009.7
20240717214544 82 5 0.0 0.0 0.00 0.13 0.13 82 1009.8
20240717213044 82 25 0.0 2.0 0.00 0.13 0.13 82 1009.7
20240717211552 82 345 2.0 6.0 0.00 0.13 0.13 82 1009.5
20240717210052 83 344 2.0 5.0 0.00 0.13 0.13 82 1010.1
20240717204552 83 342 4.0 8.0 0.00 0.13 0.13 81 1010.1
20240717203042 84 331 6.0 9.0 0.00 0.13 0.13 79 1010.2
20240717201546 84 315 4.0 8.0 0.00 0.13 0.13 79 1009.7
20240717200140 84 325 6.0 9.0 0.00 0.13 0.13 78 1008.8
20240717194548 84 325 1.0 5.0 0.00 0.13 0.13 79 1009.3
20240717193043 83 317 1.0 6.0 0.00 0.13 0.13 80 1009.7
20240717191540 83 315 0.0 2.0 0.00 0.13 0.13 82 1009.9
20240717190037 83 315 0.0 0.0 0.01 0.13 0.13 83 1009.7
20240717184537 82 315 0.0 0.0 0.13 0.13 0.13 86 1010.2
20240717183046 81 317 0.0 0.0 0.13 0.13 0.13 88 1010.9
20240717181535 81 317 0.0 0.0 0.13 0.13 0.13 87 1011.1
20240717180031 83 334 8.0 11.0 0.12 0.12 0.12 80 1011.1
20240717174529 87 197 0.0 0.0 0.00 0.00 0.00 69 1010.9
20240717173046 87 235 0.0 2.0 0.00 0.00 0.00 69 1010.9
20240717171527 87 219 0.0 4.0 0.00 0.00 0.00 70 1010.9
20240717170025 87 192 0.0 5.0 0.00 0.00 0.00 70 1010.9
20240717164524 86 173 1.0 5.0 0.00 0.00 0.00 70 1010.7
20240717163028 86 163 1.0 5.0 0.00 0.00 0.00 71 1010.5
20240717161520 86 198 2.0 5.0 0.00 0.00 0.00 71 1010.4
20240717160018 86 179 2.0 6.0 0.00 0.00 0.00 72 1010.3
20240717154518 86 197 1.0 6.0 0.00 0.00 0.00 72 1010.2
20240717153020 85 186 3.0 7.0 0.00 0.00 0.00 72 1010.0
20240717151517 85 181 2.0 7.0 0.00 0.00 0.00 72 1009.8
20240717150017 85 196 3.0 7.0 0.00 0.00 0.00 72 1009.8
20240717144513 85 175 3.0 7.0 0.00 0.00 0.00 73 1009.7
20240717143012 85 175 1.0 9.0 0.00 0.00 0.00 73 1009.8
20240717141513 85 134 3.0 7.0 0.00 0.00 0.00 73 1009.6
20240717140011 85 167 3.0 7.0 0.00 0.00 0.00 74 1009.6
20240717134619 85 171 2.0 8.0 0.00 0.00 0.00 74 1009.4
20240717133010 84 178 2.0 7.0 0.00 0.00 0.00 75 1009.6
20240717131510 84 175 2.0 6.0 0.00 0.00 0.00 75 1009.8
20240717130009 84 178 1.0 5.0 0.00 0.00 0.00 75 1009.6
20240717124514 84 159 0.0 5.0 0.00 0.00 0.00 75 1009.4
20240717123012 84 180 0.0 5.0 0.00 0.00 0.00 75 1009.5
20240717121508 84 192 0.0 4.0 0.00 0.00 0.00 75 1009.6
20240717120006 83 209 0.0 6.0 0.00 0.00 0.00 75 1009.7
20240717114505 84 217 1.0 4.0 0.00 0.00 0.00 75 1009.7
20240717113004 84 194 0.0 2.0 0.00 0.00 0.00 74 1009.7
20240717111502 84 205 0.0 5.0 0.00 0.00 0.00 74 1009.3
20240717110002 84 182 0.0 5.0 0.00 0.00 0.00 73 1009.6
20240717104608 84 163 2.0 6.0 0.00 0.00 0.00 73 1009.0
20240717103057 84 185 2.0 8.0 0.00 0.00 0.00 73 1008.7
20240717101556 84 177 3.0 8.0 0.00 0.00 0.00 72 1008.6
20240717100058 85 168 3.0 8.0 0.00 0.00 0.00 71 1008.5
20240717094557 85 170 1.0 9.0 0.00 0.00 0.00 71 1008.5
20240717093058 85 154 4.0 10.0 0.00 0.00 0.00 71 1008.4
20240717091549 85 166 3.0 10.0 0.00 0.00 0.00 70 1008.2
20240717090047 85 173 3.0 9.0 0.00 0.00 0.00 70 1008.3
20240717084546 86 196 3.0 13.0 0.00 0.00 0.00 69 1008.2
20240717083047 86 184 4.0 11.0 0.00 0.00 0.00 68 1008.0
20240717081603 86 192 3.0 9.0 0.00 0.00 0.00 67 1008.1
20240717080041 86 188 3.0 8.0 0.00 0.00 0.00 66 1008.0
20240717074539 86 170 3.0 10.0 0.00 0.00 0.00 65 1007.9
20240717073049 87 173 3.0 13.0 0.00 0.00 0.00 65 1007.8
20240717071557 87 262 5.0 10.0 0.00 0.00 0.00 64 1007.8
20240717070133 87 141 4.0 10.0 0.00 0.00 0.00 63 1007.4
20240717064542 87 173 5.0 10.0 0.00 0.00 0.00 63 1007.4
20240717063033 88 200 2.0 11.0 0.00 0.00 0.00 63 1007.3
20240717061530 88 181 4.0 9.0 0.00 0.00 0.00 63 1007.4
20240717060027 88 185 4.0 10.0 0.00 0.00 0.00 62 1007.1
20240717054532 88 180 3.0 10.0 0.00 0.00 0.00 62 1007.2
20240717053030 88 179 2.0 8.0 0.00 0.00 0.00 63 1006.9
20240717051522 88 198 1.0 10.0 0.00 0.00 0.00 63 1006.9
20240717050020 89 178 3.0 9.0 0.00 0.00 0.00 62 1006.7
20240717044521 89 224 5.0 12.0 0.00 0.00 0.00 61 1006.4
20240717043019 89 194 4.0 11.0 0.00 0.00 0.00 61 1006.3
20240717041521 90 175 3.0 7.0 0.00 0.00 0.00 60 1006.5
20240717040018 90 155 3.0 11.0 0.00 0.00 0.00 59 1006.4
20240717034517 90 167 4.0 10.0 0.00 0.00 0.00 58 1006.4
20240717033036 91 175 4.0 9.0 0.00 0.00 0.00 57 1006.3
20240717031516 92 157 3.0 8.0 0.00 0.00 0.00 50 1006.3
20240717030022 92 175 2.0 12.0 0.00 0.00 0.00 48 1006.2
20240717024516 93 232 4.0 9.0 0.00 0.00 0.00 47 1006.0
20240717023016 93 148 4.0 11.0 0.00 0.00 0.00 47 1005.6
20240717021514 93 170 2.0 10.0 0.00 0.00 0.00 47 1005.7
20240717020029 94 173 3.0 10.0 0.00 0.00 0.00 46 1005.8
20240717014513 95 204 3.0 11.0 0.00 0.00 0.00 43 1005.7
20240717013024 95 175 2.0 7.0 0.00 0.00 0.00 42 1005.9
20240717011515 96 185 1.0 7.0 0.00 0.00 0.00 41 1005.9
20240717010010 97 177 1.0 5.0 0.00 0.00 0.00 39 1005.9
20240717004510 97 169 2.0 7.0 0.00 0.00 0.00 38 1006.0
20240717003016 97 173 2.0 6.0 0.00 0.00 0.00 38 1005.8
20240717001509 98 182 2.0 7.0 0.00 0.00 0.00 37 1005.6
20240717000009 98 178 2.0 6.0 0.00 0.00 0.00 38 1005.5